Tracking 29933 objects as of 2-Dec-2024
HD Live streaming from Space Station
objects crossing your sky now

STARLINK-5953

Track STARLINK-5953 now!
10-day predictions
STARLINK-5953 is classified as:


NORAD ID: 56799
Int'l Code: 2023-078AJ
Perigee: 579.6 km
Apogee: 583.7 km
Inclination: 70.0 °
Period: 96.2 minutes
Semi major axis: 6952 km
RCS: Unknown
Launch date: May 31, 2023
Source: United States (US)
Launch site: AIR FORCE WESTERN TEST RANGE (AFWTR)
Your satellite tracking list
Your tracking list is empty




NASA's NSSDC Master Catalog

Two Line Element Set (TLE):
1 56799U 23078AJ  24336.91667824 -.00035670  00000-0 -30588-2 0  9996
2 56799  70.0016  71.1577 0002911 273.8053 105.7367 14.97538827 83623
Source of the keplerian elements: AFSPC